Le nostre stazioni meteo in Italia

Pubblicità
Il mio iltempo24.it
Drumnadrochit, Gran Bretagna (99132): Temperatura & dewpoint: 15.01.2017 21:00:00 - 21.01.2017 21:00:00 (GMT)Drumnadrochit, Gran Bretagna (99132): precipitazioni: 15.01.2017 21:00:00 - 21.01.2017 21:00:00 (GMT)
Data & Tempo tt [°C] td [°C] rr [mm]
21.01.2017 21:00:00 -2,0 -2,6 0,0
21.01.2017 20:00:00 -1,3 -2,3 0,0
21.01.2017 19:00:00 -0,5 -1,3 0,0
21.01.2017 18:00:00 -0,7 -1,7 0,0
21.01.2017 17:00:00 -0,6 -1,6 0,0
21.01.2017 16:00:00 0,9 -0,2 0,0
21.01.2017 15:00:00 4,3 1,6 0,0
21.01.2017 14:00:00 4,3 2,1 0,0
21.01.2017 13:00:00 4,6 2,4 0,0
21.01.2017 12:00:00 3,2 2,6 0,2
21.01.2017 11:00:00 0,7 0,5 0,0
21.01.2017 10:00:00 -2,2 -2,2 0,0
21.01.2017 09:00:00 -1,9 -1,9 0,0
21.01.2017 08:00:00 -2,5 -2,6 0,0
21.01.2017 07:00:00 -2,4 -2,4 0,0
21.01.2017 06:00:00 -2,0 -2,1 0,0
21.01.2017 05:00:00 -1,3 -1,3 0,0
21.01.2017 04:00:00 -1,8 -1,8 0,0
21.01.2017 03:00:00 -2,4 -2,4 0,0
21.01.2017 02:00:00 -2,6 -2,6 0,0
21.01.2017 01:00:00 -2,7 -3,0 0,0
21.01.2017 00:00:00 -1,7 -1,7 0,0
20.01.2017 23:00:00 -2,0 -2,0 0,0
20.01.2017 22:00:00 -2,3 -2,4 0,0
20.01.2017 21:00:00 -2,3 -2,5 0,0
20.01.2017 20:00:00 -1,7 -2,0 0,0
20.01.2017 19:00:00 -0,9 -1,2 0,0
20.01.2017 18:00:00 -0,1 -0,4 0,0
20.01.2017 17:00:00 0,8 0,3 0,0
20.01.2017 16:00:00 2,2 0,7 0,0
20.01.2017 15:00:00 7,2 3,1 0,0
20.01.2017 14:00:00 8,1 3,0 0,0
20.01.2017 13:00:00 7,5 3,1 0,0
20.01.2017 12:00:00 6,6 3,6 0,0
20.01.2017 11:00:00 4,6 2,6 0,0
20.01.2017 10:00:00 2,1 1,2 0,0
20.01.2017 09:00:00 2,7 1,6 0,0
20.01.2017 08:00:00 5,3 3,8 0,0
20.01.2017 07:00:00 6,7 3,3 0,0
20.01.2017 06:00:00 6,9 3,2 0,0
20.01.2017 05:00:00 7,0 3,4 0,0
20.01.2017 04:00:00 7,1 3,9 0,0
20.01.2017 03:00:00 7,2 4,1 0,0
20.01.2017 02:00:00 7,4 4,1 0,0
20.01.2017 01:00:00 7,6 4,5 0,0
20.01.2017 00:00:00 7,9 4,6 0,0
19.01.2017 23:00:00 8,0 4,7 0,0
19.01.2017 22:00:00 8,1 4,6 0,0
19.01.2017 21:00:00 8,0 4,6 0,0
19.01.2017 20:00:00 8,5 4,5 0,0
19.01.2017 19:00:00 8,5 4,6 0,0
19.01.2017 18:00:00 8,6 4,7 0,0
19.01.2017 17:00:00 8,4 4,6 0,0
19.01.2017 16:00:00 8,7 4,6 0,0
19.01.2017 15:00:00 9,0 4,5 0,0
19.01.2017 14:00:00 9,8 5,3 0,0
19.01.2017 13:00:00 9,3 5,3 0,0
19.01.2017 12:00:00 9,0 5,1 0,0
19.01.2017 11:00:00 8,9 5,3 0,0
19.01.2017 10:00:00 8,2 4,3 0,0
19.01.2017 09:00:00 8,2 4,4 0,0
19.01.2017 08:00:00 8,3 4,5 0,0
19.01.2017 07:00:00 8,4 4,8 0,0
19.01.2017 06:00:00 8,5 4,8 0,0
19.01.2017 05:00:00 7,4 4,5 0,0
19.01.2017 04:00:00 7,7 5,2 0,0
19.01.2017 03:00:00 7,9 5,8 0,0
19.01.2017 02:00:00 7,4 5,6 0,0
19.01.2017 01:00:00 7,3 5,8 0,0
19.01.2017 00:00:00 7,1 5,3 0,0
18.01.2017 23:00:00 7,6 5,5 0,0
18.01.2017 22:00:00 7,6 6,1 0,0
18.01.2017 21:00:00 7,8 6,0 0,0
18.01.2017 20:00:00 7,6 5,9 0,0
18.01.2017 19:00:00 8,4 5,9 0,0
18.01.2017 18:00:00 7,9 6,1 0,0
18.01.2017 17:00:00 8,2 6,1 0,0
18.01.2017 16:00:00 8,6 5,9 0,0
18.01.2017 15:00:00 8,9 6,1 0,0
18.01.2017 14:00:00 9,2 5,8 0,0
18.01.2017 13:00:00 9,3 5,6 0,0
18.01.2017 12:00:00 9,0 5,4 0,0
18.01.2017 11:00:00 8,7 5,3 0,0
18.01.2017 10:00:00 8,7 5,2 0,0
18.01.2017 09:00:00 8,4 5,1 0,0
18.01.2017 08:00:00 8,5 4,9 0,0
18.01.2017 07:00:00 8,5 4,7 0,0
18.01.2017 06:00:00 8,7 4,2 0,0
18.01.2017 05:00:00 8,8 4,3 0,0
18.01.2017 04:00:00 9,0 4,6 0,0
18.01.2017 03:00:00 9,1 4,7 0,0
18.01.2017 02:00:00 8,7 4,7 0,0
18.01.2017 01:00:00 9,0 4,8 0,0
18.01.2017 00:00:00 7,2 4,5 0,0
17.01.2017 23:00:00 7,1 4,7 0,0
17.01.2017 22:00:00 7,1 5,2 0,0
17.01.2017 21:00:00 6,3 5,0 0,0
17.01.2017 20:00:00 8,6 6,4 0,0
17.01.2017 19:00:00 9,4 7,1 0,0
17.01.2017 18:00:00 9,6 8,4 0,0
17.01.2017 17:00:00 9,5 8,5 0,0
17.01.2017 16:00:00 10,0 8,9 0,0
17.01.2017 15:00:00 10,6 8,9 0,0
17.01.2017 14:00:00 10,9 8,9 0,0
17.01.2017 13:00:00 11,3 8,9 0,0
17.01.2017 12:00:00 12,0 9,0 0,0
17.01.2017 11:00:00 9,7 9,2 0,0
17.01.2017 10:00:00 8,7 8,6 0,0
17.01.2017 09:00:00 7,6 7,1 0,0
17.01.2017 08:00:00 8,8 8,2 0,0
17.01.2017 07:00:00 8,6 8,4 0,0
17.01.2017 06:00:00 8,6 8,6 0,0
17.01.2017 05:00:00 8,2 7,8 0,0
17.01.2017 04:00:00 8,3 8,0 0,0
17.01.2017 03:00:00 7,3 6,8 0,0
17.01.2017 02:00:00 8,6 7,5 0,0
17.01.2017 01:00:00 9,7 8,2 0,0
17.01.2017 00:00:00 9,6 8,1 0,0
16.01.2017 23:00:00 9,9 8,5 0,0
16.01.2017 22:00:00 9,8 8,3 0,0
16.01.2017 21:00:00 9,0 8,6 0,0
16.01.2017 20:00:00 9,0 7,7 0,0
16.01.2017 19:00:00 9,9 8,7 0,0
16.01.2017 18:00:00 8,4 7,2 0,0
16.01.2017 17:00:00 9,5 8,0 0,0
16.01.2017 16:00:00 9,6 8,5 0,0
16.01.2017 15:00:00 9,3 8,2 0,0
16.01.2017 14:00:00 9,7 8,4 0,0
16.01.2017 13:00:00 7,5 7,5 0,0
16.01.2017 12:00:00 6,5 6,5 0,0
16.01.2017 11:00:00 4,3 4,3 0,0
16.01.2017 10:00:00 3,0 3,0 0,0
16.01.2017 09:00:00 2,9 2,9 0,0
16.01.2017 08:00:00 3,2 3,2 0,0
16.01.2017 07:00:00 3,2 3,2 0,0
16.01.2017 06:00:00 3,6 3,6 0,0
16.01.2017 05:00:00 3,4 3,4 0,0
16.01.2017 04:00:00 3,6 3,6 0,0
16.01.2017 03:00:00 3,1 3,1 0,0
16.01.2017 02:00:00 3,6 3,6 0,0
16.01.2017 01:00:00 4,2 4,2 0,0
16.01.2017 00:00:00 3,0 3,0 0,0
15.01.2017 23:00:00 2,5 2,5 0,0
15.01.2017 22:00:00 2,7 2,7 0,0
15.01.2017 21:00:00 2,9 2,9 0,0

tt = Temperatura
td = dewpoint
rr = precipitazioni

Stazioni seguenti

WeatherPro
AMSI
MeteoEarth